Overview Statistics Trail Chart Weather Telemetry Raw packets
 

This is the latest recevied weather packets stored in our database for station/object S51FO-6. If no packets are shown the sender has not sent any weather packets the latest 10 day(s).

<< 36 37 38 39 40 41 42 >>
Time Temp. Humidity Pressure Rain* Wind** Luminosity Snow
1787839179 23.89° C 50% - 0 mm - - -
1787837979 23.33° C 57% - 0 mm - - -
1787837379 22.78° C 58% - 0 mm - - -
1787835582 22.22° C 58% - 0 mm - - -
1787834379 24.44° C 53% - 0 mm - - -
1787833779 24.44° C 53% - 0 mm - - -
1787833179 23.89° C 52% - 0 mm - - -
1787831384 25° C 50% - 0 mm - - -
1787829612 24.44° C 52% - 0 mm - - -
1787829579 24.44° C 52% - 0 mm - - -
1787828979 23.89° C 51% - 0 mm - - -
1787828379 23.89° C 51% - 0 mm - - -
1787827789 25° C 49% - 0 mm - - -
1787826579 24.44° C 51% - 0 mm - - -
1787825995 23.33° C 54% - 0 mm - - -
1787824781 23.33° C 55% - 0 mm - - -
1787824178 23.89° C 53% - 0 mm - - -
1787822379 22.78° C 58% - 0 mm - - -
1787821779 23.33° C 54% - 0 mm - - -
1787821181 23.89° C 50% - 0 mm - - -
1787819982 22.78° C 52% - 0 mm - - -
1787817579 21.67° C 59% - 0 mm - - -
1787816981 21.67° C 60% - 0 mm - - -
1787816430 20.56° C 64% - 0 mm - - -
1787816387 20.56° C 64% - 0 mm - - -

* Rain latest hour (hover to see other rain measurements)
** Current wind speed in m/s (hover to see current wind gust speed)